RH
25 24 25 26 29 32 39 49 60 69 75 73 73 72 72 74 71 71 70 68 63 63 61 56 51 49 49 57 56 53 67 77 74 69 76 83 90 90 95 95 90 97 91
24 23 23 26 26 28 36 47 65 81 85 86 86 84 84 84 79 72 74 75 70 67 62 65 62 54 54 59 61 68 70 61 68 69 76 81 91 90 92 93 81 90 84
26 25 24 24 25 24 29 44 62 83 93 93 93 94 95 93 86 83 81 82 73 68 76 68 64 65 64 71 71 67 71 74 74 78 81 89 86 84 82 84 85 85 81
26 26 25 26 25 25 27 36 54 80 93 97 96 97 98 93 93 87 86 85 79 69 68 69 71 69 67 72 71 78 77 76 73 80 87 85 87 91 93 93 87 86 88
25 25 26 27 28 28 29 34 53 75 91 98 98 97 97 95 98 93 94 93 84 76 76 72 71 76 80 79 83 77 82 73 81 81 78 81 86 89 95 88 88 90 88
27 28 28 29 30 32 31 35 53 73 89 96 98 98 99 98 98 96 99 98 94 88 83 80 80 80 81 80 77 79 75 76 75 76 83 88 91 92 90 88 95 95 91
38 38 36 35 33 33 32 38 60 76 88 94 98 98 98 98 96 98 97 99 95 94 94 93 85 82 84 85 84 85 84 86 88 88 90 91 92 97 98 94 96 92 80
46 46 46 44 38 34 34 41 66 82 90 95 98 98 98 98 96 97 97 94 92 87 90 88 92 90 85 86 89 87 86 87 88 90 93 93 95 97 97 92 85 79 70
49 49 49 50 44 35 36 46 66 85 93 97 98 98 98 98 96 92 97 96 93 93 94 92 94 90 91 83 80 83 88 91 92 96 95 98 95 89 86 84 74 67 69
50 51 54 54 49 37 40 53 78 91 97 98 98 98 98 98 98 96 96 98 97 96 98 96 97 93 83 82 85 90 91 92 94 94 91 91 91 86 79 80 79 73 66
53 52 58 57 47 40 46 64 90 97 98 98 98 98 98 98 98 98 98 99 99 98 97 99 96 87 85 85 89 93 94 95 96 96 93 83 81 83 79 69 67 63 56
54 54 59 52 44 46 53 80 95 98 98 98 98 98 98 98 96 97 98 99 99 99 98 94 87 88 88 91 92 95 98 98 95 88 86 85 78 71 68 63 58 52 44
55 58 57 48 47 51 64 90 97 98 98 98 98 98 98 98 97 97 98 99 98 98 98 89 89 89 90 93 95 96 94 91 91 86 78 72 69 65 58 54 46 38 31
58 62 57 49 51 56 78 96 97 98 98 98 98 98 98 98 98 98 98 98 98 98 93 94 94 95 97 97 96 93 91 85 78 75 70 66 60 54 48 43 37 33 32
64 65 58 53 56 62 89 97 97 98 98 98 97 98 98 98 98 98 98 98 98 98 96 96 95 96 96 94 88 87 83 77 72 67 60 56 52 48 42 38 36 35 35
68 65 61 59 59 75 94 97 97 98 98 98 97 97 98 98 98 98 98 98 98 97 96 96 96 95 94 92 85 77 72 65 61 58 55 51 47 44 41 39 38 39 40
70 70 68 63 62 83 97 97 97 98 98 97 98 98 98 98 98 98 97 97 98 97 97 96 95 95 88 76 69 63 61 60 58 55 53 49 47 45 43 42 45 45 44
77 78 74 67 65 87 97 97 97 97 97 97 97 97 98 97 97 97 97 97 97 97 97 93 84 73 65 61 60 62 62 60 58 56 53 51 49 48 47 49 49 48 47
85 82 76 69 67 88 97 97 97 97 97 97 97 97 97 97 97 98 97 97 97 94 83 74 67 62 63 64 64 63 63 61 59 58 57 56 54 53 55 53 51 49 49
90 83 77 71 69 88 97 97 97 97 97 97 97 97 97 97 97 97 97 97 89 81 74 69 64 65 67 66 66 66 66 66 64 63 62 60 60 60 59 57 54 53 52
92 86 80 75 72 91 97 97 97 97 97 97 97 98 98 97 97 98 97 89 80 72 66 65 67 68 68 69 70 72 72 72 71 69 68 66 65 64 63 61 59 56 54
90 86 82 78 78 96 97 97 97 97 97 97 97 97 97 96 96 97 90 83 77 73 73 73 69 69 71 72 73 76 77 77 77 77 75 72 69 67 66 64 60 58 57
91 86 84 79 88 98 97 97 97 97 97 97 97 97 97 96 97 93 88 83 78 76 76 75 74 75 76 76 78 81 84 85 83 80 78 75 72 69 68 65 62 60 59
94 88 86 83 97 98 97 97 97 97 97 97 97 97 97 98 97 94 90 87 85 83 82 82 82 83 84 85 89 92 92 89 84 82 80 77 73 70 68 66 63 62 60
95 91 89 90 98 98 97 97 97 97 97 97 97 97 97 97 98 98 95 94 91 88 89 90 89 91 96 97 96 94 92 89 86 83 81 78 73 71 69 66 64 60 50
96 93 92 97 98 97 97 97 97 97 97 97 98 98 97 98 98 97 97 97 96 97 97 96 97 97 97 97 96 94 92 90 87 83 81 76 73 70 66 58 45 36 36